[Iaude] MPEC D89: 2024 DG1 [a=1.27,e=0.15,i=12.3,H=24.4]
    mpec at cfa.harvard.edu 
    mpec at cfa.harvard.edu
       
    Tue Feb 20 17:47:49 EST 2024
    
    
  
M.P.E.C. 2024-D89                             Issued 2024 February 20, 22:46 UT
     The Minor Planet Electronic Circulars contain information on unusual
         minor planets, routine data on comets and natural satellites,
         and occasional editorial announcements.  They are published
    on behalf of Division F of the International Astronomical Union by the
          Minor Planet Center, Smithsonian Astrophysical Observatory,
                          Cambridge, MA 02138, U.S.A.
			  
             Prepared using the Tamkin Foundation Computer Network
                              MPC at CFA.HARVARD.EDU
            URL https://www.minorplanetcenter.net/    ISSN 1523-6714
                                    2024 DG1                                    
Observations:
     K24D01G*1C2024 02 19.24476810 46 14.128+15 51 23.58         20.94GVED089G96
     K24D01G 1C2024 02 19.24994210 46 14.642+15 51 55.80         20.41GVED089G96
     K24D01G 1C2024 02 19.25642210 46 15.240+15 52 36.70         20.27GVED089G96
     K24D01G 1C2024 02 19.26160810 46 15.748+15 53 09.67         20.06GVED089G96
     K24D01G  C2024 02 19.29375010 46 18.493+15 56 31.01         19.9 GVED089H01
     K24D01G  C2024 02 19.30029110 46 19.089+15 57 12.36         20.0 GVED089H01
     K24D01G  C2024 02 19.31250810 46 20.234+15 58 28.98         20.0 GVED089H01
     K24D01G  C2024 02 19.31736810 46 20.685+15 58 59.55         20.1 GVED089H01
     K24D01G KB2024 02 19.37279 10 46 25.152+16 04 39.86         20.8 VZED089H36
     K24D01G KB2024 02 19.37850 10 46 25.675+16 05 14.60         20.6 VZED089H36
     K24D01G KB2024 02 19.38420 10 46 26.201+16 05 49.52         20.8 VZED089H36
     K24D01G KC2024 02 19.40017010 46 28.625+16 07 38.60         20.18GVED089I52
     K24D01G KC2024 02 19.40317210 46 28.913+16 07 57.29         20.50GVED089I52
     K24D01G KC2024 02 19.40618110 46 29.204+16 08 15.72         20.68GVED089I52
     K24D01G KC2024 02 19.40919810 46 29.478+16 08 34.51         20.63GVED089I52
     K24D01G KC2024 02 20.28223510 48 15.33 +17 38 31.7          20.1 GVED089H21
     K24D01G KC2024 02 20.28782810 48 15.82 +17 39 06.0          20.2 GVED089H21
     K24D01G KC2024 02 20.29062310 48 16.10 +17 39 23.3          20.6 GVED089H21
     K24D01G KC2024 02 20.29369810 48 18.133+17 39 49.75         20.50GVED089I52
     K24D01G KC2024 02 20.29540610 48 18.302+17 40 00.23         20.43GVED089I52
     K24D01G KC2024 02 20.29711010 48 18.436+17 40 11.03         20.46GVED089I52
     K24D01G KC2024 02 20.29881510 48 18.630+17 40 21.11         20.38GVED089I52
     K24D01G KC2024 02 20.30052410 48 18.760+17 40 31.51         20.30GVED089I52
     K24D01G pC2024 02 20.91476710 49 31.81 +18 42 27.5          20.2 GVED089L01
     K24D01G KC2024 02 20.91785410 49 32.07 +18 42 47.4          19.9 GVED089L01
     K24D01G KC2024 02 20.92046610 49 32.32 +18 43 02.3          20.1 GVED089L01
Observer details:
G96 Mt. Lemmon Survey.  Observers T. Beuden, G. J. Leonard.  Measurers T.
    Beuden, V. F. Carvajal, D. Fay, J. B. Fazekas, D. C. Fuls, A. R. Gibbs, A.
    D. Grauer, H. Groeller, J. K. Hogan, R. A. Kowalski, S. M. Larson, G. J.
    Leonard, D. Rankin, R. L. Seaman, F. C. Shelly, K. W. Wierzchos.  1.5-m
    reflector + 10K CCD.
H01 Magdalena Ridge Observatory, Socorro.  Observers W. H. Ryan, E. V. Ryan.
    Measurer W. H. Ryan.  2.4-m f/8.9 Ritchey-Chretien + CCD.
H21 Astronomical Research Observatory, Westfield.  Observer R. Holmes.
    Measurers T. Linder, R. Holmes, L. Horn.  0.76-m f/3.0 astrograph + CCD.
H36 Sandlot Observatory, Scranton.  Observer G. Hug.  0.56-m f/4.8 reflector +
    CMO.
I52 Steward Observatory, Mt. Lemmon Station.  Observers J. B. Fazekas, R. A.
    Kowalski.  Measurers E. C. Beshore, D. Fay, J. B. Fazekas, D. C. Fuls, A.
    R. Gibbs, A. D. Grauer, H. Groeller, J. K. Hogan, R. A. Kowalski, S. M.
    Larson, G. J. Leonard, D. Rankin, R. L. Seaman, F. C. Shelly, K. W.
    Wierzchos.  1.0-m prime focus + CCD.
L01 Visnjan Observatory, Tican.  Observer K. Korlevic.  1.0-m f/2.9 reflector
    + CCD.
Orbital elements:
2024 DG1                                                 Earth MOID = 0.1083 AU
Epoch 2024 Mar. 31.0 TT = JDT 2460400.5                 MPC                     
M  49.08948              (2000.0)            P               Q                  
n   0.68578429     Peri.  335.13829     -0.53600815     -0.83618584             
a   1.2735354      Node   146.91807     +0.80577306     -0.54777764             
e   0.1482494      Incl.   12.28496     +0.25184327     -0.02707224             
P   1.44           H   24.45          G   0.15           U   8                  
Residuals in seconds of arc
240219 G96  0.1+  0.4+    240219 H36  0.1+  0.3+    240220 I52  0.5+  0.2-
240219 G96  0.3+  0.1-    240219 H36  0.3-  0.2-    240220 I52  0.6+  0.2-
240219 G96  0.1-  0.3-    240219 I52  0.1-  0.1+    240220 I52  0.3+  0.1+
240219 G96  0.0   0.1-    240219 I52  0.0   0.1+    240220 I52  0.9+  0.3-
240219 H01  0.1-  0.0     240219 I52  0.1+  0.1-    240220 I52  0.5+  0.5-
240219 H01  0.3-  0.2+    240219 I52  0.0   0.1-    240220 L01  0.1-  0.3-
240219 H01  0.1-  0.1+    240220 H21  0.2+  0.1-    240220 L01  0.6-  0.8+
240219 H01  0.1-  0.1+    240220 H21  0.2-  0.1-    240220 L01  0.6-  0.2-
240219 H36  0.5+  1.0+    240220 H21  0.1+  0.1+
Ephemeris:
2024 DG1                 a,e,i = 1.27, 0.15, 12                  q = 1.0847
Date    TT    R. A. (2000) Decl.     Delta      r    Elong.  Phase     V
2024 01 21    09 40 51.3 -26 05 23   0.1508  1.0847   128.7    45.1    22.2
...
2024 02 05    10 15 24.8 -09 15 23   0.1182  1.0898   150.0    26.9    21.2
...
2024 02 13    10 33 11.1 +04 33 08   0.1122  1.0958   164.6    13.8    20.7
...
2024 02 19    10 45 41.9 +15 26 05   0.1150  1.1017   169.7     9.2    20.6
2024 02 20    10 47 41.8 +17 10 00   0.1161  1.1028   169.2     9.7    20.6
2024 02 21    10 49 39.9 +18 51 32   0.1173  1.1039   168.3    10.4    20.7
...
2024 02 27    11 00 47.9 +27 56 27   0.1281  1.1114   160.0    17.7    21.1
...
2024 03 06    11 13 36.7 +36 44 38   0.1496  1.1229   148.9    27.1    21.8
...
2024 03 21    11 32 25.5 +44 29 27   0.2035  1.1487   134.8    38.0    22.8
A. U. Tomatic                (C) Copyright 2024 MPC           M.P.E.C. 2024-D89
    
    
More information about the Iaude
mailing list